Location: Bergnerzell
(49.1816°N, 10.2565°E)
Time: 12:33:54
(UTC+00:00)

IDEFIX/ARIANE 42P - Pass Details

Date: 20 August 2024
Orbit: 782 x 799 km, 98.5° (Epoch: 15 September)

Event Time Altitude Azimuth Distance (km) Brightness Sun altitude
Rises 01:05:33 0° 15° (NNE) 3,288 7.1 -24.4°
Reaches altitude 10° 01:07:53 10° 17° (NNE) 2,357 6.1 -24.2°
Maximum altitude 01:13:06 79° 104° (ESE) 810 2.5 -23.8°
Enters shadow 01:14:07 58° 175° (S) 919 2.6 -23.7°
